Total_Precipitation_Accumulation
0.02 0.03 0.08 0.05 0.04 0.05 0.08 0.10 0.10 0.10 0.10 0.09 0.08 0.06 0.04 0.04 0.04 0.02 0.02 0.03 0.04 0.06 0.07 0.09 0.11 0.11 0.13 0.14 0.14 0.13 0.12 0.13 0.17 0.21 0.23 0.26 0.34 0.48 0.64 0.65 0.69 0.53 0.35
0.00 0.02 0.07 0.04 0.04 0.05 0.06 0.09 0.10 0.11 0.11 0.10 0.09 0.06 0.05 0.04 0.04 0.03 0.03 0.03 0.04 0.05 0.06 0.07 0.08 0.08 0.09 0.09 0.08 0.08 0.09 0.15 0.24 0.30 0.32 0.28 0.40 0.55 0.59 0.53 0.70 0.45 0.32
0.01 0.01 0.04 0.04 0.04 0.04 0.05 0.07 0.08 0.09 0.10 0.10 0.09 0.07 0.06 0.04 0.04 0.03 0.03 0.04 0.04 0.05 0.05 0.05 0.05 0.05 0.06 0.06 0.06 0.08 0.09 0.19 0.34 0.50 0.64 0.55 0.32 0.53 0.61 0.54 0.49 0.28 0.28
0.01 0.02 0.03 0.06 0.05 0.04 0.05 0.06 0.07 0.08 0.09 0.09 0.08 0.07 0.06 0.05 0.05 0.06 0.05 0.05 0.05 0.06 0.07 0.05 0.04 0.04 0.05 0.05 0.07 0.08 0.12 0.19 0.32 0.60 1.00 0.67 0.26 0.31 0.42 0.37 0.33 0.25 0.23
0.03 0.04 0.07 0.08 0.05 0.05 0.05 0.06 0.07 0.08 0.08 0.08 0.08 0.07 0.07 0.06 0.07 0.07 0.07 0.06 0.06 0.08 0.07 0.06 0.04 0.04 0.05 0.06 0.07 0.08 0.12 0.20 0.36 0.59 0.69 0.64 0.50 0.31 0.27 0.26 0.28 0.25 0.21
0.05 0.06 0.07 0.09 0.07 0.06 0.05 0.06 0.07 0.08 0.08 0.09 0.09 0.08 0.09 0.08 0.08 0.08 0.07 0.06 0.07 0.08 0.08 0.06 0.04 0.04 0.05 0.06 0.08 0.09 0.13 0.23 0.40 0.47 0.41 0.46 0.46 0.36 0.29 0.32 0.38 0.33 0.23
0.06 0.06 0.07 0.08 0.08 0.07 0.06 0.07 0.07 0.08 0.08 0.08 0.08 0.07 0.08 0.08 0.09 0.09 0.08 0.07 0.08 0.10 0.10 0.07 0.05 0.04 0.05 0.06 0.08 0.10 0.16 0.29 0.44 0.43 0.39 0.48 0.41 0.30 0.36 0.51 0.63 0.53 0.40
0.07 0.06 0.07 0.10 0.11 0.10 0.09 0.10 0.09 0.09 0.09 0.09 0.09 0.07 0.07 0.08 0.09 0.10 0.10 0.09 0.10 0.10 0.10 0.08 0.05 0.05 0.05 0.07 0.09 0.11 0.17 0.27 0.37 0.39 0.37 0.41 0.27 0.26 0.44 0.65 0.77 0.74 0.67
0.14 0.16 0.11 0.10 0.12 0.14 0.14 0.14 0.12 0.11 0.11 0.10 0.10 0.09 0.08 0.08 0.09 0.12 0.15 0.16 0.15 0.14 0.14 0.11 0.06 0.05 0.06 0.08 0.09 0.11 0.17 0.28 0.40 0.44 0.41 0.37 0.26 0.35 0.61 0.77 0.84 0.88 0.86
0.37 0.27 0.17 0.15 0.16 0.15 0.13 0.14 0.15 0.14 0.13 0.12 0.11 0.11 0.10 0.11 0.14 0.18 0.20 0.24 0.26 0.26 0.24 0.20 0.14 0.11 0.11 0.11 0.09 0.11 0.18 0.26 0.36 0.51 0.59 0.42 0.35 0.49 0.68 0.79 0.94 1.02 0.98
0.68 0.49 0.23 0.20 0.20 0.19 0.16 0.17 0.20 0.20 0.19 0.17 0.19 0.19 0.22 0.26 0.34 0.44 0.45 0.50 0.49 0.46 0.43 0.39 0.35 0.31 0.26 0.18 0.19 0.26 0.27 0.25 0.41 0.70 0.55 0.41 0.46 0.68 0.87 0.96 1.02 1.05 1.03
0.76 0.64 0.37 0.31 0.26 0.24 0.23 0.30 0.38 0.39 0.41 0.35 0.44 0.47 0.55 0.69 0.64 0.56 0.73 0.92 0.93 0.94 0.87 0.83 0.81 0.64 0.45 0.41 0.79 1.01 0.47 0.41 0.52 0.54 0.52 0.56 0.76 1.01 1.27 1.22 1.08 1.01 0.96
0.84 0.79 0.55 0.47 0.44 0.38 0.44 0.45 0.52 0.60 0.74 0.61 0.60 0.70 0.93 0.95 0.75 0.72 0.84 1.04 1.23 1.24 1.12 1.35 1.43 1.04 0.93 1.10 1.38 1.32 0.78 0.73 0.65 0.56 0.56 0.78 1.06 1.39 1.65 1.58 1.32 1.12 0.98
1.06 1.00 0.83 0.66 0.56 0.54 0.57 0.60 0.66 0.68 0.84 0.81 0.92 0.97 1.13 1.27 1.17 1.14 1.20 1.21 1.33 1.44 1.64 1.74 1.81 1.61 1.52 1.46 1.57 1.37 1.14 1.11 0.92 1.00 1.14 1.30 1.34 1.49 1.89 1.92 1.65 1.42 1.24
1.44 1.36 1.21 1.04 1.00 0.93 0.96 1.01 0.96 0.98 1.09 1.15 1.26 1.26 1.27 1.44 1.42 1.46 1.46 1.50 1.43 1.54 1.75 1.95 1.90 1.94 1.97 1.84 1.58 1.43 1.42 1.41 1.42 1.43 1.44 1.69 1.58 1.53 1.91 2.03 1.85 1.65 1.51
1.97 2.01 1.87 1.66 1.71 1.61 1.47 1.36 1.36 1.33 1.41 1.43 1.46 1.44 1.50 1.68 1.76 1.68 1.51 1.55 1.50 1.57 1.67 1.86 1.95 2.22 2.16 2.06 1.64 1.48 1.50 1.58 1.59 1.64 1.65 1.90 1.77 1.53 1.70 1.86 1.96 1.89 1.73
2.24 2.40 2.49 2.49 2.48 2.32 2.12 1.86 1.72 1.73 1.67 1.70 1.75 1.71 1.81 1.88 1.93 1.84 1.64 1.53 1.59 1.67 1.74 1.79 1.92 2.19 2.12 1.99 1.71 1.61 1.54 1.45 1.33 1.37 1.48 1.63 1.57 1.49 1.55 1.64 1.80 1.84 1.81
2.32 2.52 2.86 3.13 3.08 2.83 2.54 2.28 2.07 1.98 1.91 1.85 1.84 1.83 1.82 1.90 1.92 1.86 1.64 1.47 1.69 1.70 1.75 1.88 1.96 2.09 2.16 2.17 1.89 1.65 1.54 1.44 1.24 1.26 1.26 1.29 1.37 1.15 1.34 1.55 1.68 1.73 1.93
2.59 2.97 3.41 3.67 3.68 3.32 2.84 2.52 2.35 2.21 2.04 1.90 1.87 1.78 1.78 1.84 1.79 1.83 1.57 1.45 1.70 1.86 1.84 1.72 1.98 2.18 2.14 2.16 1.87 1.64 1.40 1.24 1.08 1.05 1.09 1.06 1.10 1.08 1.10 1.21 1.33 1.44 1.83
3.13 3.51 3.66 3.73 3.99 3.79 3.42 3.09 2.72 2.40 2.13 1.98 1.85 1.70 1.58 1.51 1.59 1.79 1.52 1.51 1.77 1.83 1.79 1.87 2.02 2.18 2.06 2.09 1.89 1.46 1.20 0.95 0.91 0.82 0.77 0.80 0.76 0.71 0.79 0.99 1.28 1.21 1.54
3.05 3.30 3.69 3.86 3.80 3.69 3.49 3.08 2.67 2.26 2.01 1.82 1.63 1.50 1.46 1.50 1.63 1.90 1.66 1.67 1.72 1.67 1.66 1.85 1.99 1.92 1.80 2.21 2.13 1.42 0.92 0.73 0.64 0.49 0.53 0.55 0.50 0.54 0.72 0.98 1.16 1.22 1.18
2.50 2.75 2.95 3.09 2.78 2.52 2.42 2.33 2.19 2.10 1.82 1.62 1.56 1.57 1.50 1.55 1.61 1.71 1.73 1.66 1.66 1.63 1.49 1.59 1.84 1.72 1.44 1.87 2.04 1.82 1.20 0.76 0.54 0.39 0.41 0.41 0.45 0.59 0.66 0.74 0.95 1.14 1.13
2.04 2.09 2.09 2.02 1.89 1.80 1.82 1.86 1.93 1.98 1.80 1.78 1.83 1.82 1.63 1.62 1.64 1.72 1.62 1.48 1.44 1.45 1.33 1.34 1.54 1.61 1.41 1.46 1.81 2.07 1.59 0.98 0.73 0.49 0.50 0.53 0.64 0.76 0.76 0.81 0.89 1.01 1.09
1.55 1.63 1.74 1.68 1.62 1.67 1.87 1.91 1.93 2.00 2.08 2.22 2.36 2.27 2.10 1.90 1.77 1.67 1.51 1.34 1.19 1.16 1.12 1.09 1.26 1.38 1.39 1.19 1.33 1.47 1.44 1.34 1.21 0.79 0.58 0.62 0.77 0.84 0.87 0.91 0.94 0.99 1.08
1.29 1.37 1.52 1.66 1.78 1.92 2.07 2.18 2.23 2.21 2.23 2.22 2.23 2.13 2.00 1.88 1.72 1.55 1.42 1.30 1.19 1.09 1.02 1.01 1.05 1.09 1.13 1.05 1.10 1.16 1.25 1.25 1.19 1.09 0.82 0.79 0.80 0.67 0.68 0.74 0.88 1.14 1.23
1.44 1.40 1.42 1.60 1.80 1.96 2.00 2.04 2.05 1.96 1.88 1.77 1.66 1.53 1.42 1.36 1.29 1.22 1.14 1.05 1.00 0.99 1.01 0.98 0.95 0.96 0.98 1.00 1.02 1.04 1.15 1.24 1.28 1.29 1.11 0.98 0.88 0.73 0.71 0.72 0.80 0.99 1.10